Wind_Speed
13 13 13 13 14 14 14 13 12 12 12 12 12 11 11 10 10 9 9 8 8 8 8 8 7 7 7 7 7 6 6 5 5 4 4 3 3 3 4 4 3 3 3
14 14 14 14 14 15 15 14 14 14 13 13 13 13 12 12 11 10 10 9 9 9 9 8 8 7 7 7 7 7 7 6 6 6 5 5 4 4 4 4 4 4 4
15 16 16 15 15 16 16 16 15 15 15 14 14 14 14 14 13 12 11 11 10 9 10 9 8 8 8 8 8 8 8 8 7 7 7 6 6 5 5 6 5 5 5
17 17 17 17 17 17 17 18 17 17 16 16 16 15 15 15 15 14 13 13 12 11 11 11 10 10 10 9 9 9 9 8 8 8 8 8 8 7 7 7 7 6 6
19 19 19 19 19 19 19 19 19 19 18 18 17 17 17 17 16 16 15 14 14 13 13 12 12 11 11 10 10 11 10 10 9 9 9 9 9 9 8 8 8 8 8
21 20 20 20 20 20 20 20 20 20 20 19 19 18 18 18 18 18 17 16 16 15 15 14 14 13 12 12 12 12 12 11 11 11 11 10 10 10 10 10 10 9 10
22 22 22 21 22 22 22 22 21 21 21 21 20 20 19 19 19 19 19 18 18 17 17 16 16 16 15 14 14 14 14 13 13 13 13 13 12 12 12 12 11 11 11
25 24 24 23 23 23 24 24 23 22 22 22 22 22 21 21 21 20 20 20 20 19 18 18 17 17 17 16 16 16 16 16 15 15 15 15 15 14 14 13 13 13 13
27 27 27 26 26 25 25 25 25 25 24 24 24 24 24 23 23 22 22 22 22 21 20 20 20 19 19 19 19 18 18 18 18 17 17 17 16 16 16 16 15 15 14
29 29 29 29 28 28 28 27 28 28 27 26 26 26 26 26 25 25 24 24 24 23 23 22 22 22 22 21 21 21 20 20 20 19 19 19 19 18 18 17 17 17 17
30 31 31 31 31 30 30 30 30 30 30 29 28 28 28 28 28 27 27 27 26 26 25 25 25 24 24 23 23 23 23 22 22 21 21 21 21 21 20 19 19 19 19
32 32 33 33 33 33 32 32 32 32 32 32 31 30 30 30 30 30 29 29 29 28 28 27 27 27 26 26 25 25 25 24 24 24 23 23 23 23 23 22 21 21 21
33 34 34 34 35 35 35 34 34 34 34 34 33 32 32 32 33 32 32 31 31 30 30 29 29 29 28 28 27 27 27 26 25 26 26 25 25 25 25 24 24 24 23
35 35 36 36 36 37 37 36 36 36 36 36 36 35 35 34 34 35 34 34 33 32 32 32 31 31 31 30 29 29 29 28 28 28 28 28 27 27 27 27 26 25 25
36 37 38 37 38 38 39 39 38 38 38 38 38 38 37 37 37 36 36 36 36 35 34 34 34 33 32 32 31 31 30 30 30 30 30 30 29 29 29 29 29 28 27
38 38 39 39 40 40 41 41 41 41 40 40 40 39 39 39 39 38 38 38 38 38 37 36 36 35 34 33 33 33 32 31 31 31 32 32 32 32 31 31 31 30 30
39 40 40 41 42 42 43 43 43 43 42 42 41 41 41 40 40 40 40 40 40 40 39 38 37 37 36 36 35 35 35 34 34 34 34 34 34 34 34 33 33 33 32
41 42 42 43 44 44 45 44 45 44 44 43 43 43 43 42 42 42 41 41 42 41 41 40 40 39 38 38 37 37 37 36 36 36 36 36 37 36 36 36 36 35 35
42 43 43 45 45 45 46 46 46 45 45 45 45 45 44 44 43 43 43 42 42 42 42 42 42 41 41 40 40 40 40 39 39 39 39 39 39 39 39 38 38 38 37
43 44 43 44 46 46 46 46 46 46 46 47 47 46 46 46 45 45 45 45 45 44 44 44 43 43 43 42 42 42 42 41 41 41 40 41 41 41 41 41 41 41 40
44 45 45 45 46 47 47 46 46 46 46 47 47 47 47 47 47 47 46 47 46 46 46 46 46 46 46 45 44 43 43 43 42 42 42 43 43 43 43 43 43 43 43
44 45 46 46 46 47 47 47 47 47 47 47 47 48 47 47 48 48 48 48 48 47 47 48 48 47 47 47 46 46 45 45 44 44 44 44 45 46 46 46 45 45 45
45 45 46 46 47 47 47 47 47 47 47 47 47 48 48 49 49 50 49 49 49 49 49 49 49 49 48 48 48 48 47 47 46 46 47 47 47 47 47 48 48 48 48
46 46 47 48 48 48 48 47 47 47 47 48 48 48 49 50 51 51 50 50 50 50 50 50 49 50 50 50 49 49 49 48 49 48 49 49 49 49 49 49 49 50 50
45 46 47 47 48 49 49 48 48 48 48 49 49 50 50 50 51 51 51 52 52 52 51 51 51 51 51 51 51 50 50 50 50 51 50 50 50 51 51 51 50 51 51
45 46 47 47 48 50 50 49 49 49 49 50 50 50 51 52 52 52 53 53 54 53 53 53 53 53 53 53 53 52 52 53 52 52 52 52 51 52 52 52 52 53 53
Wind_Direction
251 250 251 251 250 247 247 251 250 249 248 246 245 246 247 247 245 244 245 245 247 247 245 244 242 242 246 244 239 240 241 239 236 230 224 225 228 226 222 220 219 215 213
252 252 251 252 251 249 248 249 250 250 250 249 247 247 248 246 244 244 244 242 246 246 243 244 243 245 246 246 241 243 242 238 238 237 233 235 234 233 235 232 233 230 231
253 253 253 252 252 249 249 249 250 250 250 250 249 248 248 248 246 245 244 242 245 245 244 244 243 243 245 245 242 241 242 241 243 243 240 239 239 242 243 243 241 238 243
254 255 255 254 253 252 251 250 250 251 250 250 250 249 248 247 246 244 246 245 246 247 248 246 243 242 244 245 243 241 242 241 241 244 243 243 245 247 249 249 247 245 248
254 255 255 255 254 253 254 253 251 251 251 250 250 251 250 247 246 246 246 247 247 247 249 249 246 245 245 246 246 244 244 243 244 246 247 249 250 248 250 253 251 253 253
254 254 255 255 256 255 255 254 253 252 251 251 251 252 252 250 248 248 249 249 248 248 248 250 249 250 248 247 247 246 246 247 249 248 249 251 253 253 253 254 256 259 255
255 255 254 255 256 256 255 254 253 252 250 250 251 251 252 251 249 248 249 250 250 250 249 252 252 251 250 248 247 247 248 249 251 251 250 251 254 256 256 256 257 258 259
255 255 255 255 257 257 256 255 254 254 252 250 251 252 253 252 252 251 250 251 251 251 251 250 251 251 251 252 252 252 250 250 252 253 253 253 255 257 257 257 258 259 257
255 255 255 255 255 256 256 256 255 253 252 251 252 253 253 254 253 253 252 252 251 251 251 252 251 251 253 253 254 254 254 252 253 254 254 254 254 255 256 257 258 258 258
256 256 256 256 255 255 255 256 255 254 253 252 251 252 253 254 254 253 254 253 252 252 252 252 252 252 254 254 253 253 254 253 253 254 254 254 254 254 255 257 258 258 258
257 256 256 256 256 255 255 256 256 255 255 254 253 253 253 253 254 254 254 253 252 252 252 252 252 254 254 255 254 253 254 254 253 252 253 254 255 256 257 257 258 258 258
257 257 256 256 256 256 255 255 256 256 255 255 255 255 255 254 254 254 253 253 253 253 253 253 253 254 255 256 255 254 255 254 254 252 252 254 256 257 258 258 259 260 259
259 258 257 257 257 257 256 255 255 256 255 255 256 256 256 256 255 254 253 253 254 253 253 253 253 254 255 255 256 255 254 254 254 253 252 253 255 256 257 258 259 259 261
259 259 258 257 258 258 257 256 256 256 256 255 255 255 256 256 256 254 253 253 253 253 253 254 253 254 255 255 255 255 254 254 254 255 255 254 254 256 258 259 259 260 261
260 260 259 258 258 258 258 257 257 256 256 256 256 255 255 255 255 255 254 253 253 253 253 253 253 254 255 256 256 255 255 255 255 255 256 256 256 256 257 259 259 259 261
260 260 260 259 258 258 258 257 257 257 257 257 258 256 255 254 254 254 254 253 253 254 253 252 253 254 255 256 257 257 256 256 255 255 256 256 256 257 258 258 258 259 261
261 260 260 260 259 259 259 258 259 258 257 256 256 256 255 254 254 254 254 253 253 253 253 252 253 254 255 255 256 257 258 257 256 256 256 256 257 257 258 258 258 260 262
261 261 261 261 261 260 259 259 259 257 256 256 255 255 254 254 254 253 253 253 253 252 252 252 253 254 255 254 255 257 259 259 259 258 257 257 257 257 258 258 259 260 261
262 262 262 263 262 261 259 259 258 256 256 256 256 255 254 254 253 253 253 253 253 252 252 252 253 254 254 254 255 257 258 259 259 259 260 259 258 257 258 258 259 260 260
263 263 264 263 262 261 259 259 258 257 257 256 256 255 255 254 254 253 252 252 252 252 252 252 252 253 255 256 257 257 258 259 260 260 261 261 261 259 259 260 261 261 261
265 265 264 262 262 261 259 258 257 257 257 256 256 256 255 255 255 254 253 252 252 252 252 252 252 253 255 256 257 258 258 259 261 262 262 263 263 262 260 260 261 261 261
265 265 263 261 260 260 259 257 256 257 258 257 257 256 255 254 255 255 254 253 251 252 253 252 252 253 255 256 257 258 258 259 260 261 262 262 263 263 263 262 261 261 261
265 264 263 262 259 258 257 257 256 257 257 257 257 256 255 255 255 254 254 252 252 252 253 254 253 254 255 256 257 258 259 260 260 261 262 262 263 263 264 263 262 262 262
265 264 263 262 260 258 256 256 256 256 255 256 256 256 255 255 254 253 253 254 253 253 253 254 254 254 256 257 258 258 259 261 261 261 262 263 263 264 264 265 264 262 262
266 264 262 260 260 258 256 256 257 257 256 256 256 256 255 255 255 255 255 255 255 254 254 255 255 256 256 258 258 259 260 261 262 263 263 263 263 264 264 264 264 263 262
267 265 263 260 260 260 258 256 257 257 257 256 256 256 256 256 256 256 256 256 256 255 256 256 256 256 257 258 259 259 261 262 263 264 264 264 264 264 264 264 263 263 262
Height
5824 5824 5825 5826 5827 5828 5829 5830 5831 5832 5833 5834 5834 5835 5836 5837 5838 5839 5840 5841 5842 5843 5844 5844 5845 5846 5847 5847 5848 5849 5850 5851 5852 5852 5853 5854 5854 5855 5855 5856 5856 5857 5857
5821 5822 5822 5823 5824 5825 5826 5827 5828 5829 5830 5831 5832 5833 5834 5835 5836 5837 5838 5839 5840 5840 5842 5843 5844 5845 5845 5846 5847 5848 5849 5850 5851 5852 5852 5853 5854 5854 5855 5855 5856 5856 5857
5818 5819 5820 5820 5821 5822 5823 5825 5826 5827 5828 5828 5829 5830 5832 5833 5834 5835 5836 5837 5838 5838 5840 5841 5842 5843 5844 5845 5846 5847 5847 5848 5849 5850 5851 5852 5853 5853 5854 5854 5855 5855 5856
5815 5816 5816 5817 5818 5819 5820 5821 5823 5824 5825 5826 5826 5827 5829 5830 5831 5832 5833 5834 5835 5836 5838 5839 5840 5841 5842 5843 5844 5845 5846 5847 5848 5849 5850 5851 5851 5852 5853 5853 5854 5854 5855
5811 5812 5813 5814 5815 5815 5817 5818 5819 5820 5821 5822 5823 5824 5825 5826 5828 5829 5830 5831 5833 5834 5835 5836 5837 5839 5840 5841 5842 5843 5844 5845 5846 5847 5848 5849 5850 5850 5851 5852 5852 5853 5853
5807 5808 5809 5810 5811 5812 5813 5814 5815 5816 5817 5818 5820 5821 5822 5823 5824 5826 5827 5828 5829 5831 5832 5834 5835 5836 5837 5838 5839 5841 5842 5843 5844 5845 5846 5847 5848 5848 5849 5850 5851 5851 5852
5802 5803 5804 5806 5807 5808 5809 5810 5811 5812 5813 5814 5816 5817 5818 5819 5821 5822 5823 5825 5826 5827 5829 5830 5831 5833 5834 5835 5837 5838 5839 5840 5841 5842 5843 5844 5845 5846 5847 5847 5848 5849 5850
5797 5798 5799 5801 5802 5803 5804 5805 5806 5807 5808 5810 5811 5813 5814 5815 5816 5818 5819 5821 5822 5824 5825 5826 5828 5829 5830 5832 5833 5835 5836 5837 5838 5839 5840 5841 5842 5843 5844 5845 5845 5846 5847
5792 5793 5794 5795 5796 5798 5799 5800 5801 5802 5803 5805 5806 5808 5809 5811 5812 5813 5815 5816 5818 5819 5821 5822 5823 5825 5826 5827 5829 5831 5832 5833 5834 5836 5837 5838 5839 5840 5841 5842 5842 5843 5844
5785 5787 5788 5789 5790 5792 5793 5794 5795 5797 5798 5799 5801 5802 5804 5805 5807 5808 5810 5811 5813 5814 5816 5817 5819 5820 5822 5823 5825 5826 5828 5829 5830 5832 5833 5834 5835 5836 5837 5838 5839 5840 5841
5779 5780 5781 5783 5784 5785 5787 5788 5789 5790 5792 5793 5795 5796 5798 5799 5801 5803 5804 5806 5807 5809 5810 5812 5814 5815 5817 5818 5820 5821 5823 5824 5826 5827 5828 5829 5831 5832 5833 5834 5835 5836 5837
5772 5773 5774 5776 5777 5778 5780 5781 5782 5784 5785 5787 5788 5790 5791 5793 5794 5796 5798 5800 5801 5803 5804 5806 5808 5809 5811 5813 5814 5816 5817 5819 5820 5822 5823 5824 5826 5827 5828 5830 5831 5832 5833
5764 5765 5767 5768 5769 5771 5772 5774 5775 5776 5778 5779 5781 5782 5784 5786 5788 5789 5791 5793 5795 5797 5798 5800 5802 5803 5805 5806 5808 5810 5811 5813 5814 5816 5818 5819 5820 5821 5823 5824 5826 5827 5828
5756 5757 5759 5760 5761 5762 5764 5765 5767 5768 5770 5771 5773 5775 5776 5778 5780 5782 5784 5785 5787 5789 5791 5793 5795 5796 5798 5800 5801 5803 5805 5806 5808 5810 5811 5813 5814 5816 5817 5818 5820 5821 5822
5747 5748 5750 5751 5752 5753 5755 5756 5758 5760 5761 5763 5764 5766 5768 5770 5771 5773 5775 5777 5779 5781 5783 5785 5787 5789 5791 5792 5794 5796 5797 5799 5801 5803 5804 5806 5807 5809 5810 5812 5813 5815 5816
5738 5739 5740 5742 5743 5744 5745 5747 5748 5750 5752 5753 5755 5756 5758 5760 5762 5764 5766 5769 5771 5773 5775 5777 5779 5781 5783 5785 5786 5788 5790 5792 5793 5795 5797 5798 5800 5802 5803 5805 5806 5807 5809
5728 5729 5730 5731 5733 5734 5735 5736 5738 5740 5741 5743 5744 5746 5748 5750 5752 5754 5757 5759 5761 5763 5766 5768 5770 5772 5774 5776 5778 5779 5781 5783 5785 5787 5788 5790 5792 5794 5795 5797 5799 5800 5802
5718 5719 5720 5720 5721 5723 5724 5725 5726 5728 5730 5731 5733 5735 5737 5739 5741 5744 5746 5748 5751 5753 5756 5758 5760 5763 5765 5767 5769 5770 5772 5774 5776 5778 5779 5781 5783 5785 5787 5788 5790 5792 5793
5707 5708 5708 5709 5710 5711 5712 5713 5715 5716 5718 5720 5722 5723 5726 5728 5730 5732 5735 5737 5740 5742 5745 5748 5750 5753 5755 5757 5759 5761 5762 5764 5766 5768 5770 5772 5773 5775 5777 5779 5781 5782 5784
5695 5696 5696 5697 5697 5698 5699 5701 5702 5704 5706 5708 5709 5712 5714 5716 5718 5721 5723 5726 5728 5731 5734 5737 5739 5742 5744 5746 5749 5751 5752 5754 5756 5758 5760 5761 5763 5765 5767 5768 5770 5772 5774
5682 5683 5683 5684 5684 5685 5687 5688 5690 5692 5693 5695 5697 5699 5701 5703 5706 5708 5711 5714 5716 5719 5722 5725 5728 5730 5733 5735 5737 5740 5742 5743 5745 5747 5749 5750 5752 5753 5755 5757 5759 5761 5763
5669 5669 5670 5670 5671 5672 5674 5676 5678 5679 5681 5683 5684 5686 5688 5691 5693 5696 5698 5701 5704 5707 5710 5712 5715 5718 5721 5723 5725 5728 5730 5733 5734 5736 5737 5739 5740 5742 5743 5745 5747 5749 5751
5655 5656 5656 5656 5657 5659 5660 5662 5664 5666 5668 5670 5671 5673 5675 5677 5679 5682 5685 5688 5691 5694 5697 5699 5702 5705 5708 5710 5712 5715 5717 5720 5722 5724 5725 5727 5728 5729 5731 5732 5734 5736 5738
5641 5642 5642 5643 5643 5645 5647 5649 5651 5653 5655 5657 5658 5660 5662 5663 5666 5668 5671 5674 5677 5680 5683 5685 5688 5691 5694 5696 5699 5701 5703 5705 5708 5711 5713 5713 5714 5716 5717 5718 5720 5722 5724
5627 5628 5628 5629 5630 5631 5633 5635 5638 5640 5642 5643 5645 5646 5648 5650 5652 5654 5657 5659 5662 5665 5668 5671 5674 5677 5680 5682 5685 5687 5689 5691 5693 5695 5698 5700 5700 5701 5702 5704 5705 5707 5709
5614 5614 5615 5615 5617 5618 5619 5622 5624 5626 5628 5629 5631 5633 5635 5636 5638 5640 5643 5645 5648 5651 5654 5657 5660 5663 5665 5668 5670 5672 5674 5676 5678 5679 5682 5685 5686 5687 5687 5688 5690 5692 5694